| time (UTC) | temp F | wind direction | speed knots | gust knots | rain 1hr in | rain 24hr in | rain mn in | humidity % | barometer mb |
| 20260509045355 | 60 | 41 | 1.7 | 6.1 | 0.00 | 0.00 | 0.00 | 76 | 1014.8 |
| 20260509044353 | 60 | 37 | 2.6 | 4.3 | 0.00 | 0.00 | 0.00 | 76 | 1014.8 |
| 20260509043358 | 60 | 59 | 2.6 | 3.5 | 0.00 | 0.00 | 0.00 | 76 | 1014.8 |
| 20260509042350 | 60 | 22 | 1.7 | 4.3 | 0.00 | 0.00 | 0.00 | 76 | 1014.9 |
| 20260509041353 | 60 | 57 | 1.7 | 6.1 | 0.00 | 0.00 | 0.00 | 76 | 1014.9 |
| 20260509040355 | 60 | 31 | 2.6 | 4.3 | 0.00 | 0.00 | 0.00 | 77 | 1014.7 |
| 20260509035355 | 60 | 21 | 2.6 | 4.3 | 0.00 | 0.00 | 0.00 | 76 | 1014.8 |
| 20260509034355 | 60 | 0 | 1.7 | 3.5 | 0.00 | 0.00 | 0.00 | 76 | 1014.9 |
| 20260509033340 | 60 | 25 | 2.6 | 4.3 | 0.00 | 0.00 | 0.00 | 75 | 1015.0 |
| 20260509032338 | 60 | 14 | 0.0 | 1.7 | 0.00 | 0.00 | 0.00 | 76 | 1015.0 |
| 20260509031337 | 60 | 14 | 0.0 | 3.5 | 0.00 | 0.00 | 0.00 | 76 | 1014.9 |
| 20260509030338 | 60 | 11 | 1.7 | 3.5 | 0.00 | 0.00 | 0.00 | 76 | 1015.0 |
| 20260509025354 | 60 | 20 | 0.9 | 4.3 | 0.00 | 0.00 | 0.00 | 76 | 1015.0 |
| 20260509024356 | 60 | 48 | 2.6 | 3.5 | 0.00 | 0.00 | 0.00 | 76 | 1014.8 |
| 20260509023342 | 60 | 37 | 0.9 | 4.3 | 0.00 | 0.00 | 0.00 | 76 | 1015.0 |
| 20260509022340 | 59 | 34 | 3.5 | 4.3 | 0.00 | 0.00 | 0.00 | 75 | 1015.3 |
| 20260509021338 | 59 | 40 | 2.6 | 4.3 | 0.00 | 0.00 | 0.00 | 75 | 1015.3 |
| 20260509020340 | 59 | 38 | 2.6 | 5.2 | 0.00 | 0.00 | 0.00 | 75 | 1015.2 |
| 20260509015357 | 59 | 24 | 3.5 | 4.3 | 0.00 | 0.00 | 0.00 | 75 | 1015.5 |
| 20260509014339 | 59 | 27 | 1.7 | 4.3 | 0.00 | 0.00 | 0.00 | 75 | 1015.6 |
| 20260509013341 | 59 | 57 | 1.7 | 4.3 | 0.00 | 0.00 | 0.00 | 76 | 1015.8 |
| 20260509012359 | 59 | 37 | 2.6 | 5.2 | 0.00 | 0.00 | 0.00 | 76 | 1015.9 |
| 20260509011358 | 59 | 23 | 3.5 | 5.2 | 0.00 | 0.00 | 0.00 | 76 | 1015.6 |
| 20260509010337 | 59 | 46 | 2.6 | 3.5 | 0.00 | 0.00 | 0.00 | 76 | 1015.9 |
| 20260509005340 | 59 | 44 | 0.9 | 4.3 | 0.00 | 0.00 | 0.00 | 76 | 1016.0 |
| 20260509004354 | 59 | 22 | 2.6 | 5.2 | 0.00 | 0.00 | 0.00 | 76 | 1016.1 |
| 20260509003357 | 59 | 30 | 3.5 | 5.2 | 0.00 | 0.00 | 0.00 | 76 | 1016.3 |
| 20260509002338 | 59 | 44 | 0.9 | 4.3 | 0.00 | 0.00 | 0.00 | 76 | 1016.2 |
| 20260509001358 | 59 | 50 | 2.6 | 4.3 | 0.00 | 0.00 | 0.00 | 76 | 1016.1 |
| 20260509000356 | 59 | 45 | 1.7 | 4.3 | 0.00 | 0.00 | 0.00 | 76 | 1016.4 |
| 20260508235357 | 59 | 34 | 2.6 | 5.2 | 0.00 | 0.00 | 0.00 | 76 | 1016.3 |
| 20260508234338 | 59 | 21 | 2.6 | 5.2 | 0.00 | 0.00 | 0.00 | 76 | 1016.2 |
| 20260508233341 | 59 | 25 | 0.9 | 4.3 | 0.00 | 0.00 | 0.00 | 76 | 1016.4 |
| 20260508232338 | 59 | 17 | 4.3 | 6.1 | 0.00 | 0.00 | 0.00 | 76 | 1016.4 |
| 20260508231356 | 59 | 45 | 1.7 | 4.3 | 0.00 | 0.00 | 0.00 | 76 | 1016.4 |
| 20260508230338 | 59 | 51 | 2.6 | 5.2 | 0.00 | 0.00 | 0.00 | 76 | 1016.4 |
| 20260508225354 | 59 | 61 | 1.7 | 5.2 | 0.00 | 0.00 | 0.00 | 77 | 1016.5 |
| 20260508224337 | 59 | 62 | 1.7 | 4.3 | 0.00 | 0.00 | 0.00 | 77 | 1016.5 |
| 20260508223340 | 59 | 27 | 2.6 | 5.2 | 0.00 | 0.00 | 0.00 | 76 | 1016.5 |
| 20260508222342 | 59 | 49 | 3.5 | 4.3 | 0.00 | 0.00 | 0.00 | 75 | 1016.7 |
| 20260508221344 | 59 | 16 | 0.0 | 4.3 | 0.00 | 0.00 | 0.00 | 75 | 1016.6 |
| 20260508220348 | 60 | 25 | 1.7 | 4.3 | 0.00 | 0.00 | 0.00 | 74 | 1016.6 |
| 20260508215349 | 60 | 37 | 1.7 | 4.3 | 0.00 | 0.00 | 0.00 | 74 | 1016.5 |
| 20260508214356 | 60 | 48 | 2.6 | 3.5 | 0.00 | 0.00 | 0.00 | 73 | 1016.7 |
| 20260508213337 | 61 | 90 | 0.0 | 0.9 | 0.00 | 0.00 | 0.00 | 72 | 1016.7 |
| 20260508212354 | 61 | 90 | 0.0 | 0.0 | 0.00 | 0.00 | 0.00 | 72 | 1016.7 |
| 20260508211357 | 61 | 90 | 0.0 | 0.0 | 0.00 | 0.00 | 0.00 | 71 | 1016.6 |
| 20260508210338 | 61 | 90 | 0.0 | 0.0 | 0.00 | 0.00 | 0.00 | 71 | 1016.7 |
| 20260508205358 | 61 | 90 | 0.0 | 0.0 | 0.00 | 0.00 | 0.00 | 71 | 1016.6 |
| 20260508204344 | 61 | 90 | 0.0 | 1.7 | 0.00 | 0.00 | 0.00 | 71 | 1016.5 |
| 20260508203353 | 61 | 90 | 0.0 | 1.7 | 0.00 | 0.00 | 0.00 | 71 | 1016.5 |
| 20260508202350 | 61 | 90 | 0.0 | 3.5 | 0.00 | 0.00 | 0.00 | 71 | 1016.3 |
| 20260508201349 | 62 | 94 | 0.9 | 4.3 | 0.00 | 0.00 | 0.00 | 71 | 1016.1 |
| 20260508200338 | 62 | 100 | 1.7 | 5.2 | 0.00 | 0.00 | 0.00 | 71 | 1016.0 |
| 20260508195355 | 62 | 93 | 0.0 | 3.5 | 0.00 | 0.00 | 0.00 | 70 | 1015.9 |
| 20260508194357 | 63 | 96 | 0.9 | 4.3 | 0.00 | 0.00 | 0.00 | 69 | 1015.9 |
| 20260508193342 | 63 | 99 | 1.7 | 4.3 | 0.00 | 0.00 | 0.00 | 68 | 1015.8 |
| 20260508192342 | 63 | 97 | 1.7 | 3.5 | 0.00 | 0.00 | 0.00 | 67 | 1015.6 |
| 20260508191344 | 64 | 107 | 1.7 | 3.5 | 0.00 | 0.00 | 0.00 | 66 | 1015.5 |
| 20260508190344 | 64 | 114 | 0.9 | 2.6 | 0.00 | 0.00 | 0.00 | 66 | 1015.5 |
| 20260508185338 | 64 | 121 | 0.0 | 0.0 | 0.00 | 0.00 | 0.00 | 66 | 1015.5 |
| 20260508184339 | 64 | 122 | 0.0 | 0.0 | 0.00 | 0.00 | 0.00 | 66 | 1015.3 |
| 20260508183345 | 64 | 123 | 0.0 | 3.5 | 0.00 | 0.00 | 0.00 | 66 | 1015.3 |
| 20260508182339 | 64 | 122 | 1.7 | 3.5 | 0.00 | 0.00 | 0.00 | 66 | 1015.1 |
| 20260508181345 | 65 | 121 | 1.7 | 4.3 | 0.00 | 0.00 | 0.00 | 66 | 1015.0 |
| 20260508180353 | 65 | 126 | 1.7 | 7.8 | 0.00 | 0.00 | 0.00 | 66 | 1015.0 |
| 20260508175348 | 65 | 83 | 0.9 | 7.0 | 0.00 | 0.00 | 0.00 | 66 | 1014.9 |
| 20260508174347 | 65 | 139 | 4.3 | 7.8 | 0.00 | 0.00 | 0.00 | 66 | 1015.0 |
| 20260508173353 | 65 | 128 | 5.2 | 9.6 | 0.00 | 0.00 | 0.00 | 65 | 1014.9 |
| 20260508172356 | 65 | 119 | 4.3 | 9.6 | 0.00 | 0.00 | 0.00 | 63 | 1014.8 |
| 20260508171340 | 66 | 137 | 4.3 | 8.7 | 0.00 | 0.00 | 0.00 | 63 | 1014.9 |
| 20260508170345 | 66 | 239 | 0.9 | 7.0 | 0.00 | 0.00 | 0.00 | 65 | 1014.6 |
| 20260508165347 | 66 | 193 | 3.5 | 9.6 | 0.00 | 0.00 | 0.00 | 64 | 1014.7 |
| 20260508164349 | 66 | 188 | 1.7 | 7.8 | 0.00 | 0.00 | 0.00 | 63 | 1014.7 |
| 20260508163340 | 67 | 200 | 2.6 | 7.8 | 0.00 | 0.00 | 0.00 | 62 | 1014.6 |
| 20260508162341 | 66 | 205 | 1.7 | 8.7 | 0.00 | 0.00 | 0.00 | 61 | 1014.6 |
| 20260508161345 | 66 | 100 | 4.3 | 9.6 | 0.00 | 0.00 | 0.00 | 61 | 1014.6 |
| 20260508160354 | 66 | 136 | 4.3 | 10.4 | 0.00 | 0.00 | 0.00 | 61 | 1014.7 |
| 20260508155353 | 66 | 109 | 6.1 | 10.4 | 0.00 | 0.00 | 0.00 | 60 | 1014.7 |
| 20260508154338 | 66 | 145 | 5.2 | 9.6 | 0.00 | 0.00 | 0.00 | 59 | 1014.7 |
| 20260508153340 | 67 | 113 | 4.3 | 9.6 | 0.00 | 0.00 | 0.00 | 60 | 1014.7 |
| 20260508152358 | 67 | 149 | 3.5 | 10.4 | 0.00 | 0.00 | 0.00 | 59 | 1014.8 |
| 20260508151338 | 67 | 333 | 1.7 | 8.7 | 0.00 | 0.00 | 0.00 | 62 | 1014.7 |
| 20260508150350 | 67 | 155 | 1.7 | 11.3 | 0.00 | 0.00 | 0.00 | 60 | 1014.5 |
| 20260508145346 | 67 | 174 | 1.7 | 7.0 | 0.00 | 0.00 | 0.00 | 60 | 1014.6 |
| 20260508144354 | 67 | 125 | 4.3 | 9.6 | 0.00 | 0.00 | 0.00 | 59 | 1014.6 |
| 20260508143355 | 67 | 123 | 5.2 | 8.7 | 0.00 | 0.00 | 0.00 | 58 | 1014.6 |
| 20260508142352 | 68 | 128 | 6.1 | 10.4 | 0.00 | 0.00 | 0.00 | 58 | 1014.7 |
| 20260508141354 | 69 | 123 | 3.5 | 7.8 | 0.00 | 0.00 | 0.00 | 55 | 1014.8 |
| 20260508140337 | 69 | 278 | 1.7 | 7.0 | 0.00 | 0.00 | 0.00 | 56 | 1014.9 |
| 20260508135340 | 68 | 149 | 2.6 | 7.0 | 0.00 | 0.00 | 0.00 | 56 | 1015.0 |
| 20260508134346 | 68 | 186 | 1.7 | 7.8 | 0.00 | 0.00 | 0.00 | 57 | 1015.1 |
| 20260508133351 | 68 | 131 | 2.6 | 7.8 | 0.00 | 0.00 | 0.00 | 54 | 1015.3 |
| 20260508132350 | 68 | 220 | 1.7 | 7.0 | 0.00 | 0.00 | 0.00 | 55 | 1015.4 |
| 20260508131355 | 68 | 222 | 1.7 | 6.1 | 0.00 | 0.00 | 0.00 | 55 | 1015.3 |
| 20260508130341 | 68 | 69 | 4.3 | 8.7 | 0.00 | 0.00 | 0.00 | 56 | 1015.2 |
| 20260508125358 | 67 | 129 | 3.5 | 8.7 | 0.00 | 0.00 | 0.00 | 57 | 1015.4 |
| 20260508124356 | 67 | 134 | 4.3 | 12.2 | 0.00 | 0.00 | 0.00 | 56 | 1015.5 |
| 20260508123354 | 67 | 121 | 2.6 | 8.7 | 0.00 | 0.00 | 0.00 | 54 | 1015.4 |
| 20260508122354 | 67 | 135 | 2.6 | 8.7 | 0.00 | 0.00 | 0.00 | 54 | 1015.4 |
| 20260508121340 | 67 | 159 | 3.5 | 7.0 | 0.00 | 0.00 | 0.00 | 56 | 1015.4 |
| 20260508120340 | 67 | 153 | 1.7 | 7.0 | 0.00 | 0.00 | 0.00 | 55 | 1015.5 |
| 20260508115340 | 66 | 120 | 3.5 | 9.6 | 0.00 | 0.00 | 0.00 | 56 | 1015.4 |
| 20260508114347 | 66 | 108 | 7.0 | 9.6 | 0.00 | 0.00 | 0.00 | 57 | 1015.4 |
| 20260508113350 | 67 | 166 | 3.5 | 9.6 | 0.00 | 0.00 | 0.00 | 58 | 1015.3 |
| 20260508112343 | 67 | 131 | 4.3 | 7.8 | 0.00 | 0.00 | 0.00 | 57 | 1015.2 |
| 20260508111347 | 67 | 74 | 4.3 | 7.8 | 0.00 | 0.00 | 0.00 | 58 | 1015.3 |
| 20260508110354 | 67 | 111 | 6.1 | 7.8 | 0.00 | 0.00 | 0.00 | 56 | 1015.2 |
| 20260508105356 | 66 | 128 | 3.5 | 7.0 | 0.00 | 0.00 | 0.00 | 56 | 1015.2 |
| 20260508104339 | 67 | 155 | 1.7 | 8.7 | 0.00 | 0.00 | 0.00 | 58 | 1015.3 |
| 20260508103344 | 67 | 153 | 1.7 | 7.8 | 0.00 | 0.00 | 0.00 | 58 | 1015.5 |
| 20260508102342 | 67 | 100 | 0.9 | 7.0 | 0.00 | 0.00 | 0.00 | 59 | 1015.5 |
| 20260508101353 | 66 | 136 | 1.7 | 8.7 | 0.00 | 0.00 | 0.00 | 60 | 1015.6 |
| 20260508100338 | 66 | 104 | 3.5 | 10.4 | 0.00 | 0.00 | 0.00 | 60 | 1015.7 |
| 20260508095357 | 66 | 193 | 1.7 | 7.0 | 0.00 | 0.00 | 0.00 | 64 | 1015.6 |
| 20260508094357 | 65 | 133 | 4.3 | 7.0 | 0.00 | 0.00 | 0.00 | 64 | 1015.7 |
| 20260508093338 | 65 | 160 | 2.6 | 7.8 | 0.00 | 0.00 | 0.00 | 63 | 1015.6 |
| 20260508092356 | 65 | 115 | 3.5 | 7.0 | 0.00 | 0.00 | 0.00 | 62 | 1015.6 |
| 20260508091338 | 65 | 128 | 2.6 | 7.0 | 0.00 | 0.00 | 0.00 | 65 | 1015.3 |
| 20260508090344 | 65 | 249 | 3.5 | 6.1 | 0.00 | 0.00 | 0.00 | 64 | 1015.3 |
| 20260508085345 | 65 | 273 | 2.6 | 4.3 | 0.00 | 0.00 | 0.00 | 63 | 1015.3 |
| 20260508084352 | 64 | 239 | 1.7 | 6.1 | 0.00 | 0.00 | 0.00 | 63 | 1015.3 |
| 20260508083353 | 64 | 0 | 0.9 | 3.5 | 0.00 | 0.00 | 0.00 | 62 | 1015.1 |
| 20260508082341 | 63 | 0 | 0.0 | 3.5 | 0.00 | 0.00 | 0.00 | 62 | 1015.0 |
| 20260508081349 | 63 | 16 | 0.0 | 3.5 | 0.00 | 0.00 | 0.00 | 63 | 1014.8 |
| 20260508080349 | 62 | 84 | 0.0 | 3.5 | 0.00 | 0.00 | 0.00 | 66 | 1014.7 |
| 20260508075350 | 61 | 85 | 0.9 | 4.3 | 0.00 | 0.00 | 0.00 | 69 | 1014.9 |
| 20260508074354 | 60 | 76 | 1.7 | 3.5 | 0.00 | 0.00 | 0.00 | 72 | 1014.8 |
| 20260508073354 | 59 | 23 | 0.0 | 5.2 | 0.00 | 0.00 | 0.00 | 75 | 1014.9 |
| 20260508072336 | 58 | 94 | 2.6 | 3.5 | 0.00 | 0.00 | 0.00 | 78 | 1014.8 |
| 20260508071357 | 57 | 63 | 1.7 | 4.3 | 0.00 | 0.00 | 0.00 | 80 | 1014.6 |
| 20260508070357 | 56 | 1 | 2.6 | 3.5 | 0.00 | 0.00 | 0.00 | 81 | 1014.4 |
| 20260508065357 | 56 | 24 | 1.7 | 3.5 | 0.00 | 0.00 | 0.00 | 82 | 1014.5 |
| 20260508064357 | 55 | 27 | 0.0 | 3.5 | 0.00 | 0.00 | 0.00 | 83 | 1014.5 |
| 20260508063343 | 54 | 65 | 0.9 | 2.6 | 0.00 | 0.00 | 0.00 | 83 | 1014.4 |
| 20260508062337 | 54 | 66 | 0.9 | 1.7 | 0.00 | 0.00 | 0.00 | 84 | 1014.5 |
| 20260508061339 | 54 | 66 | 0.0 | 2.6 | 0.00 | 0.00 | 0.00 | 84 | 1014.4 |
| 20260508060342 | 54 | 67 | 0.9 | 1.7 | 0.00 | 0.00 | 0.00 | 84 | 1014.4 |
| 20260508055341 | 53 | 67 | 0.9 | 2.6 | 0.00 | 0.00 | 0.00 | 84 | 1014.4 |
| 20260508054359 | 53 | 72 | 0.0 | 2.6 | 0.00 | 0.00 | 0.00 | 84 | 1014.3 |
| 20260508053356 | 53 | 73 | 0.0 | 1.7 | 0.00 | 0.00 | 0.00 | 84 | 1014.2 |
| 20260508052354 | 53 | 76 | 0.0 | 2.6 | 0.00 | 0.00 | 0.00 | 84 | 1014.0 |
| 20260508051337 | 53 | 132 | 0.0 | 1.7 | 0.00 | 0.00 | 0.00 | 84 | 1013.8 |
| 20260508050342 | 53 | 132 | 0.0 | 0.9 | 0.00 | 0.00 | 0.00 | 84 | 1013.9 |